"datetime","# probes","# resolvers","can_ipv6","can_ipv6_prbs","can_tcp","can_tcp_prbs","can_tcp6","can_tcp6_prbs","does_ecs","does_ecs_prbs","does_flagday","does_flagday_prbs","does_rov4","does_rov4_prbs","does_rov6","does_rov6_prbs","does_qnamemin","doesnt_qnamemin","does_qnamemin_prbs","doesnt_qnamemin_prbs","does_nxdomain","doesnt_nxdomain","does_nxdomain_prbs","doesnt_nxdomain_prbs","has_ta_19036","hasnt_ta_19036","has_ta_19036_prbs","hasnt_ta_19036_prbs","has_ta_20326","hasnt_ta_20326","has_ta_20326_prbs","hasnt_ta_20326_prbs","can_rsamd5","cannot_rsamd5","broken_rsamd5","can_rsamd5_prbs","cannot_rsamd5_prbs","broken_rsamd5_prbs","can_dsa","cannot_dsa","broken_dsa","can_dsa_prbs","cannot_dsa_prbs","broken_dsa_prbs","can_rsasha1","cannot_rsasha1","broken_rsasha1","can_rsasha1_prbs","cannot_rsasha1_prbs","broken_rsasha1_prbs","can_dsansec3","cannot_dsansec3","broken_dsansec3","can_dsansec3_prbs","cannot_dsansec3_prbs","broken_dsansec3_prbs","can_rsansec3","cannot_rsansec3","broken_rsansec3","can_rsansec3_prbs","cannot_rsansec3_prbs","broken_rsansec3_prbs","can_rsasha256","cannot_rsasha256","broken_rsasha256","can_rsasha256_prbs","cannot_rsasha256_prbs","broken_rsasha256_prbs","can_rsasha512","cannot_rsasha512","broken_rsasha512","can_rsasha512_prbs","cannot_rsasha512_prbs","broken_rsasha512_prbs","can_eccgost","cannot_eccgost","broken_eccgost","can_eccgost_prbs","cannot_eccgost_prbs","broken_eccgost_prbs","can_ecdsa256","cannot_ecdsa256","broken_ecdsa256","can_ecdsa256_prbs","cannot_ecdsa256_prbs","broken_ecdsa256_prbs","can_ecdsa384","cannot_ecdsa384","broken_ecdsa384","can_ecdsa384_prbs","cannot_ecdsa384_prbs","broken_ecdsa384_prbs","can_ed25519","cannot_ed25519","broken_ed25519","can_ed25519_prbs","cannot_ed25519_prbs","broken_ed25519_prbs","can_ed448","cannot_ed448","broken_ed448","can_ed448_prbs","cannot_ed448_prbs","broken_ed448_prbs","can_gost","cannot_gost","broken_gost","can_gost_prbs","cannot_gost_prbs","broken_gost_prbs","can_sha384","cannot_sha384","broken_sha384","can_sha384_prbs","cannot_sha384_prbs","broken_sha384_prbs","is_internal","is_forwarding","is_external","is_internal_prbs","is_forwarding_prbs","is_external_prbs"
2018-07-19T23:59:31Z,10,15,8,7,15,10,6,6,2,3,0,0,0,0,0,0,10,5,6,6,0,15,0,10,12,0,8,0,15,0,10,0,0,14,1,1,9,2,14,1,0,9,2,0,15,0,0,10,0,0,14,1,0,9,2,0,15,0,0,10,0,0,15,0,0,10,0,0,15,0,0,10,0,0,14,1,0,9,3,0,15,0,0,10,1,0,15,0,0,10,1,0,0,15,0,0,10,0,0,15,0,0,10,0,15,0,0,10,1,0,15,0,0,10,1,0,8,7,0,5,6,1
2018-07-20T23:59:28Z,11,16,9,8,16,11,7,7,2,3,0,0,0,0,0,0,10,6,6,7,0,16,0,11,13,0,9,0,16,0,11,0,1,14,1,2,10,2,14,1,0,9,2,0,16,0,0,11,1,0,15,1,0,10,3,0,16,0,0,11,1,0,16,0,0,11,1,0,16,0,0,11,1,0,14,1,0,9,3,0,16,0,0,11,2,0,15,0,0,10,1,0,0,16,0,0,11,0,0,15,0,0,10,0,16,0,0,11,2,0,15,0,0,10,1,0,9,6,1,6,5,2
2018-07-21T23:59:21Z,9,14,7,6,14,9,5,5,1,2,0,0,0,0,0,0,10,4,6,5,0,14,0,9,14,0,9,0,14,0,9,0,1,13,0,2,9,1,13,0,0,8,1,0,14,0,0,9,1,0,14,0,0,9,2,0,14,0,0,9,1,0,14,0,0,9,1,0,14,0,0,9,1,0,13,0,0,8,2,0,14,0,0,9,2,0,13,0,0,8,1,0,0,14,0,0,9,0,0,13,0,0,8,0,14,0,0,9,2,0,13,0,0,8,1,0,8,6,0,5,5,2
2018-07-22T23:59:21Z,9,14,7,6,14,9,5,5,1,2,0,0,0,0,0,0,10,4,6,5,0,14,0,9,14,0,9,0,14,0,9,0,1,13,0,2,9,1,13,0,0,8,1,0,14,0,0,9,1,0,14,0,0,9,2,0,14,0,0,9,1,0,14,0,0,9,1,0,14,0,0,9,1,0,13,0,0,8,2,0,14,0,0,9,2,0,13,0,0,8,1,0,0,14,0,0,9,0,0,13,0,0,8,0,14,0,0,9,2,0,13,0,0,8,1,0,8,5,1,5,4,2
2018-07-23T23:59:57Z,12,18,10,9,18,12,8,7,4,4,0,0,0,0,0,0,10,8,6,8,0,16,0,12,17,1,11,1,18,0,12,0,2,15,1,3,11,2,15,1,1,9,3,1,17,0,1,11,2,1,17,1,0,11,4,0,18,0,0,12,2,0,17,0,1,11,2,1,18,0,0,12,2,0,15,2,0,9,4,0,18,0,0,12,3,0,17,0,0,11,2,0,1,17,0,1,12,0,0,16,1,0,11,1,18,0,0,12,3,0,17,0,0,11,2,0,9,9,0,7,7,2
2018-07-24T23:59:21Z,9,14,7,6,14,9,5,5,1,2,0,0,0,0,0,0,10,4,6,5,0,14,0,9,14,0,9,0,14,0,9,0,1,13,0,2,9,1,13,0,0,8,1,0,14,0,0,9,1,0,14,0,0,9,2,0,14,0,0,9,1,0,14,0,0,9,1,0,14,0,0,9,1,0,13,0,0,8,2,0,14,0,0,9,2,0,13,0,0,8,1,0,0,14,0,0,9,0,0,13,0,0,8,0,14,0,0,9,2,0,13,0,0,8,1,0,8,5,1,5,4,2
2018-07-25T23:59:21Z,9,14,7,6,14,9,5,5,1,2,0,0,0,0,0,0,10,4,6,5,0,14,0,9,14,0,9,0,14,0,9,0,1,13,0,2,9,1,13,0,0,8,1,0,14,0,0,9,1,0,14,0,0,9,2,0,14,0,0,9,1,0,14,0,0,9,1,0,14,0,0,9,1,0,13,0,0,8,2,0,14,0,0,9,2,0,13,0,0,8,1,0,0,14,0,0,9,0,0,13,0,0,8,0,14,0,0,9,2,0,13,0,0,8,1,0,8,5,1,5,4,2
2018-07-26T23:59:21Z,10,16,9,7,16,10,7,6,3,3,0,0,0,0,0,0,10,6,6,6,0,16,0,10,14,2,9,1,16,0,10,0,1,15,0,2,10,1,15,0,0,9,1,0,16,0,0,10,1,0,16,0,0,10,2,0,16,0,0,10,1,0,16,0,0,10,1,0,16,0,0,10,1,0,15,0,0,9,2,0,16,0,0,10,2,0,15,0,0,9,1,0,0,16,0,0,10,0,0,15,0,0,9,0,16,0,0,10,2,0,15,0,0,9,1,0,8,7,1,6,5,2
2018-07-27T23:59:22Z,10,15,8,7,15,10,6,6,2,3,0,0,0,0,0,0,10,5,6,6,0,15,0,10,14,1,9,1,15,0,10,0,1,13,1,2,9,2,13,1,0,8,2,0,15,0,0,10,1,0,14,1,0,9,3,0,15,0,0,10,1,0,15,0,0,10,1,0,15,0,0,10,1,0,13,1,0,8,3,0,15,0,0,10,2,0,14,0,0,9,1,0,0,15,0,0,10,0,0,14,0,0,9,0,15,0,0,10,2,0,14,0,0,9,1,0,8,6,1,5,5,3
2018-07-28T23:59:20Z,9,14,7,6,14,9,5,5,1,2,0,0,0,0,0,0,10,4,6,5,0,14,0,9,14,0,9,0,14,0,9,0,1,13,0,2,9,1,13,0,0,8,0,0,14,0,0,9,1,0,14,0,0,9,2,0,14,0,0,9,1,0,14,0,0,9,1,0,14,0,0,9,1,0,13,0,0,8,2,0,14,0,0,9,2,0,13,0,0,8,1,0,0,14,0,0,9,0,0,13,0,0,8,0,14,0,0,9,2,0,13,0,0,8,1,0,8,5,1,5,4,2
2018-07-29T23:59:20Z,10,15,8,7,15,10,6,6,2,3,0,0,0,0,0,0,10,5,6,6,0,15,0,10,14,1,9,1,15,0,10,0,1,13,1,2,10,2,13,1,0,8,2,0,15,0,0,10,2,0,14,1,0,9,3,0,15,0,0,10,2,0,15,0,0,10,2,0,15,0,0,10,2,0,13,1,0,8,3,0,15,0,0,10,3,0,14,0,0,9,2,0,0,15,0,0,10,0,0,14,0,0,9,0,15,0,0,10,3,0,14,0,0,9,2,0,8,6,1,6,5,3
2018-07-30T23:59:21Z,9,14,7,6,14,9,5,5,1,2,0,0,0,0,0,0,10,4,6,5,0,14,0,9,14,0,9,0,14,0,9,0,1,13,0,2,9,1,13,0,0,8,1,0,14,0,0,9,1,0,14,0,0,9,2,0,14,0,0,9,1,0,14,0,0,9,1,0,14,0,0,9,1,0,13,0,0,8,2,0,14,0,0,9,2,0,13,0,0,8,1,0,0,14,0,0,9,0,0,13,0,0,8,0,14,0,0,9,2,0,13,0,0,8,1,0,8,5,1,5,4,2
2018-07-31T23:59:21Z,9,14,7,6,14,9,5,5,1,2,0,0,0,0,0,0,10,4,6,5,0,14,0,9,14,0,9,0,14,0,9,0,1,13,0,2,9,1,13,0,0,8,1,0,14,0,0,9,1,0,14,0,0,9,2,0,14,0,0,9,1,0,14,0,0,9,1,0,14,0,0,9,1,0,13,0,0,8,2,0,14,0,0,9,2,0,13,0,0,8,1,0,0,14,0,0,9,0,0,13,0,0,8,0,14,0,0,9,2,0,13,0,0,8,1,0,8,5,1,5,4,2
2018-08-01T23:59:22Z,11,16,9,8,15,10,7,7,1,3,0,0,0,0,0,0,11,4,7,6,0,15,0,10,14,0,9,0,16,0,11,0,1,13,2,2,10,3,13,0,2,9,2,2,14,0,2,10,1,2,14,0,2,10,3,2,15,0,1,11,1,1,15,0,1,11,1,1,15,0,1,11,1,1,13,0,2,8,3,2,14,0,2,10,2,2,13,0,2,9,1,2,0,14,2,0,10,2,0,13,2,0,9,2,16,0,0,11,3,0,13,1,1,9,2,1,10,5,1,7,4,3
2018-08-02T23:59:21Z,10,15,9,8,15,10,7,7,2,3,0,0,0,0,0,0,10,5,6,6,0,15,0,10,14,1,9,1,15,0,10,0,1,13,1,2,9,2,13,1,0,8,2,0,15,0,0,10,1,0,14,1,0,9,3,0,15,0,0,10,1,0,15,0,0,10,1,0,15,0,0,10,1,0,13,1,0,8,3,0,15,0,0,10,2,0,14,0,0,9,1,0,0,15,0,0,10,0,0,14,0,0,9,0,15,0,0,10,2,0,14,0,0,9,1,0,8,6,1,5,5,3
2018-08-03T23:59:22Z,9,14,8,7,14,9,6,6,1,2,0,0,0,0,0,0,10,4,6,5,0,14,0,9,14,0,9,0,14,0,9,0,1,13,0,2,9,1,13,0,0,8,1,0,14,0,0,9,1,0,14,0,0,9,2,0,14,0,0,9,1,0,14,0,0,9,1,0,14,0,0,9,1,0,13,0,0,8,2,0,14,0,0,9,2,0,13,0,0,8,1,0,0,14,0,0,9,0,0,13,0,0,8,0,14,0,0,9,2,0,13,0,0,8,1,0,8,6,0,5,5,2
2018-08-04T23:59:23Z,9,14,8,7,14,9,5,6,1,2,0,0,0,0,0,0,10,4,6,5,0,14,0,9,14,0,9,0,14,0,9,0,1,13,0,2,9,1,13,0,0,8,1,0,14,0,0,9,1,0,14,0,0,9,2,0,14,0,0,9,1,0,14,0,0,9,1,0,14,0,0,9,1,0,13,0,0,8,2,0,14,0,0,9,2,0,13,0,0,8,1,0,0,14,0,0,9,0,0,13,0,0,8,0,14,0,0,9,2,0,13,0,0,8,1,0,8,5,1,5,4,2
2018-08-05T23:59:22Z,10,15,9,8,14,9,6,6,1,2,0,0,0,0,0,0,10,5,6,6,0,14,0,9,14,0,9,0,15,0,10,0,1,13,1,2,9,2,13,1,0,8,2,0,15,0,0,10,1,0,14,0,1,9,2,1,14,0,1,9,1,1,15,0,0,10,1,0,14,0,1,9,1,1,14,0,0,9,2,0,14,0,1,9,2,1,13,0,1,8,1,1,0,14,1,0,9,1,0,14,0,0,9,0,15,0,0,10,2,0,14,0,0,9,1,0,8,6,1,5,5,2
2018-08-06T23:59:21Z,9,14,8,7,14,9,5,5,1,2,0,0,0,0,0,0,10,4,6,5,0,14,0,9,14,0,9,0,14,0,9,0,1,13,0,2,9,1,13,0,0,8,1,0,14,0,0,9,1,0,14,0,0,9,2,0,14,0,0,9,1,0,14,0,0,9,1,0,14,0,0,9,1,0,13,0,0,8,2,0,14,0,0,9,2,0,13,0,0,8,1,0,0,14,0,0,9,0,0,13,0,0,8,0,14,0,0,9,2,0,13,0,0,8,1,0,8,5,1,5,4,2
2018-08-07T23:59:21Z,9,14,9,7,14,9,5,5,1,2,0,0,0,0,0,0,12,2,7,4,0,14,0,9,14,0,9,0,14,0,9,0,1,13,0,2,9,1,13,0,0,8,1,0,14,0,0,9,1,0,14,0,0,9,2,0,14,0,0,9,1,0,14,0,0,9,1,0,14,0,0,9,1,0,13,0,0,8,2,0,14,0,0,9,2,0,13,0,0,8,1,0,0,14,0,0,9,0,0,13,0,0,8,0,14,0,0,9,2,0,13,0,0,8,1,0,8,5,1,5,4,2
2018-08-08T23:59:20Z,12,18,13,10,18,12,9,8,2,4,0,0,0,0,0,0,12,6,7,7,0,18,0,12,16,1,11,1,18,0,12,0,2,15,1,3,10,3,16,1,0,10,3,1,18,0,0,12,1,1,17,1,0,11,4,1,18,0,0,12,1,1,18,0,0,12,1,1,18,0,0,12,1,1,16,1,0,10,4,1,18,0,0,12,2,1,17,0,0,11,1,1,0,18,0,0,12,1,0,17,0,0,11,1,18,0,0,12,2,1,17,0,0,11,1,1,11,5,2,7,4,4
2018-08-09T23:59:21Z,12,17,12,10,17,12,7,7,2,4,0,0,0,0,0,0,12,5,7,7,1,16,1,11,15,0,10,0,17,0,12,0,3,13,1,4,9,3,15,1,0,10,3,0,17,0,0,12,1,0,16,1,0,11,4,0,17,0,0,12,1,0,17,0,0,12,1,0,17,0,0,12,1,0,15,1,0,10,4,0,17,0,0,12,2,0,16,0,0,11,1,0,0,17,0,0,12,0,0,16,0,0,11,0,17,0,0,12,2,0,16,0,0,11,1,0,10,7,0,7,6,3
2018-08-10T23:59:59Z,12,17,12,10,17,12,8,8,2,4,0,0,0,0,0,0,12,5,7,7,0,17,0,12,15,0,10,0,17,0,12,0,3,13,1,4,9,3,15,1,0,10,3,0,17,0,0,12,1,0,16,1,0,11,4,0,17,0,0,12,1,0,17,0,0,12,1,0,17,0,0,12,1,0,15,1,0,10,4,0,17,0,0,12,2,0,16,0,0,11,1,0,0,17,0,0,12,0,0,16,0,0,11,0,17,0,0,12,2,0,16,0,0,11,1,0,10,5,2,7,4,4
2018-08-11T23:59:22Z,13,18,13,11,18,13,9,9,3,5,0,0,0,0,0,0,13,5,8,7,0,18,0,13,15,1,10,1,18,0,13,0,3,13,2,4,10,4,15,2,0,10,4,0,18,0,0,13,2,0,16,2,0,11,5,0,18,0,0,13,2,0,18,0,0,13,2,0,18,0,0,13,2,0,15,2,0,10,5,0,18,0,0,13,3,0,17,0,0,12,2,0,0,18,0,0,13,0,0,17,0,0,12,0,18,0,0,13,3,0,17,0,0,12,2,0,10,6,2,7,5,5
2018-08-12T23:59:22Z,13,18,13,11,18,13,9,9,2,4,0,0,0,0,0,0,13,5,8,7,0,18,0,13,17,0,12,0,18,0,13,0,4,14,0,5,10,2,17,0,0,12,2,0,18,0,0,13,1,0,18,0,0,13,3,0,18,0,0,13,1,0,18,0,0,13,1,0,18,0,0,13,1,0,16,1,0,11,4,0,18,0,0,13,2,0,17,0,0,12,1,0,0,18,0,0,13,0,0,17,0,0,12,0,18,0,0,13,2,0,17,0,0,12,1,0,11,5,2,8,4,4
2018-08-13T23:59:30Z,15,20,15,13,20,15,11,11,3,5,0,0,0,0,0,0,12,8,7,10,0,20,0,15,17,1,12,1,20,0,15,0,4,14,2,5,11,4,17,2,0,12,4,0,20,0,0,15,2,0,18,2,0,13,5,0,20,0,0,15,2,0,20,0,0,15,2,0,20,0,0,15,2,0,17,2,0,12,5,0,20,0,0,15,3,0,19,0,0,14,2,0,0,20,0,0,15,0,0,19,0,0,14,0,20,0,0,15,3,0,19,0,0,14,2,0,12,5,3,10,4,5
2018-08-14T23:59:21Z,11,16,11,9,16,11,7,7,1,3,0,0,0,0,0,0,12,4,7,6,0,16,0,11,16,0,11,0,16,0,11,0,3,13,0,4,8,2,16,0,0,11,2,0,16,0,0,11,0,0,16,0,0,11,2,0,16,0,0,11,0,0,16,0,0,11,0,0,16,0,0,11,0,0,16,0,0,11,3,0,16,0,0,11,1,0,16,0,0,11,1,0,0,16,0,0,11,0,0,16,0,0,11,0,16,0,0,11,1,0,16,0,0,11,1,0,10,6,0,7,5,3
2018-08-15T23:59:21Z,11,16,11,9,16,11,7,7,1,3,0,0,0,0,0,0,12,4,7,6,0,16,0,11,16,0,11,0,16,0,11,0,3,13,0,4,8,2,16,0,0,11,2,0,16,0,0,11,0,0,16,0,0,11,2,0,16,0,0,11,0,0,16,0,0,11,0,0,16,0,0,11,0,0,16,0,0,11,3,0,16,0,0,11,1,0,16,0,0,11,1,0,0,16,0,0,11,0,0,16,0,0,11,0,16,0,0,11,1,0,16,0,0,11,1,0,10,5,1,7,4,3
2018-08-16T23:59:22Z,15,19,15,13,19,15,11,11,4,6,0,0,0,0,0,0,12,7,9,9,0,19,0,15,17,1,13,2,19,0,15,0,4,13,2,5,10,4,17,2,0,13,5,0,19,0,0,15,1,0,16,3,0,12,5,0,19,0,0,15,1,0,19,0,0,15,1,0,19,0,0,15,1,0,16,3,0,12,6,0,19,0,0,15,2,0,19,0,0,15,2,0,0,19,0,0,15,0,0,19,0,0,15,0,19,0,0,15,2,0,19,0,0,15,2,0,9,7,3,7,7,6
2018-08-17T23:59:23Z,14,19,13,11,19,14,9,9,2,4,0,0,0,0,0,0,13,6,9,8,0,19,0,14,18,0,13,0,19,0,14,0,4,14,1,5,10,3,18,1,0,13,3,0,19,0,0,14,1,0,17,1,1,12,3,1,19,0,0,14,1,0,19,0,0,14,1,0,19,0,0,14,1,0,18,1,0,13,4,0,19,0,0,14,2,0,18,0,1,13,2,1,1,18,0,1,13,0,0,19,0,0,14,0,19,0,0,14,2,0,19,0,0,14,2,0,11,7,1,8,6,4
2018-08-18T23:59:22Z,12,17,12,10,17,12,8,8,1,3,0,0,0,0,0,0,13,4,8,6,0,17,0,12,17,0,12,0,17,0,12,0,3,14,0,4,9,2,17,0,0,12,2,0,17,0,0,12,0,0,17,0,0,12,2,0,17,0,0,12,0,0,17,0,0,12,0,0,17,0,0,12,0,0,17,0,0,12,3,0,17,0,0,12,1,0,17,0,0,12,1,0,0,17,0,0,12,0,0,17,0,0,12,0,17,0,0,12,1,0,17,0,0,12,1,0,10,6,1,7,5,3
2018-08-19T23:59:22Z,14,19,14,12,19,14,10,10,2,5,0,0,0,0,0,0,14,5,9,7,0,19,0,14,18,1,13,1,19,0,14,0,4,14,1,5,11,4,18,1,0,13,4,0,19,0,0,14,2,0,18,1,0,13,4,0,19,0,0,14,2,0,19,0,0,14,2,0,19,0,0,14,2,0,18,1,0,13,5,0,19,0,0,14,3,0,19,0,0,14,3,0,0,19,0,0,14,0,0,19,0,0,14,0,19,0,0,14,3,0,19,0,0,14,3,1,11,7,1,8,6,5
2018-08-20T23:59:22Z,14,19,14,12,19,14,10,10,1,4,0,0,0,0,0,0,13,6,9,8,0,19,0,14,19,0,14,0,19,0,14,0,4,14,1,5,11,4,18,1,0,13,4,0,19,0,0,14,2,0,18,1,0,13,4,0,19,0,0,14,2,0,19,0,0,14,2,0,19,0,0,14,2,0,19,0,0,14,5,0,19,0,0,14,3,0,19,0,0,14,3,0,0,19,0,0,14,0,0,19,0,0,14,0,19,0,0,14,3,0,19,0,0,14,3,0,11,7,1,8,6,5
2018-08-21T23:59:21Z,16,22,17,14,22,16,13,12,3,6,0,0,0,0,0,0,14,8,9,9,0,22,0,16,21,0,15,0,22,0,16,0,6,15,1,6,12,4,21,1,0,15,4,0,22,0,0,16,1,0,21,1,0,15,4,0,22,0,0,16,1,0,22,0,0,16,1,0,22,0,0,16,1,0,20,2,0,14,6,0,22,0,0,16,2,0,22,0,0,16,2,0,0,22,0,1,16,0,0,22,0,0,16,0,22,0,0,16,3,0,22,0,0,16,2,0,13,6,3,10,5,6
2018-08-22T23:59:30Z,16,22,17,14,22,16,13,12,1,4,0,0,0,0,0,0,13,9,8,10,0,22,0,16,21,0,15,0,22,0,16,0,7,15,0,7,11,3,21,0,1,16,4,1,22,0,0,16,1,0,21,0,1,16,4,1,22,0,0,16,1,0,22,0,0,16,1,0,22,0,0,16,1,0,22,0,0,16,5,0,22,0,0,16,2,0,22,0,0,16,2,0,0,22,0,1,16,0,0,22,0,0,16,0,22,0,0,16,2,0,22,0,0,16,2,0,15,7,0,11,6,4
2018-08-23T23:59:22Z,18,24,19,16,20,14,9,9,5,8,0,0,0,0,0,0,14,10,10,11,0,24,0,18,22,0,16,0,24,0,18,0,7,15,2,7,11,6,22,2,0,16,6,0,24,0,0,18,1,0,22,2,0,16,5,0,24,0,0,18,1,0,24,0,0,18,1,0,24,0,0,18,1,1,21,3,0,15,7,0,24,0,0,18,1,0,24,0,0,18,2,0,0,24,0,0,18,0,0,24,0,0,18,0,24,0,0,18,3,0,24,0,0,18,2,0,14,8,2,10,7,7
2018-08-24T23:59:22Z,16,22,17,14,22,16,13,12,2,6,0,0,0,0,0,0,13,9,8,11,0,22,0,16,21,0,15,1,22,0,16,0,7,14,1,8,9,5,21,1,0,15,6,0,22,0,0,16,1,0,21,1,0,15,6,0,22,0,0,16,1,0,22,0,0,16,1,0,22,0,0,16,1,0,20,2,0,14,7,0,22,0,0,16,2,0,22,0,0,16,2,0,0,22,0,0,16,0,0,22,0,0,16,0,22,0,0,16,3,0,22,0,0,16,2,0,14,7,1,10,7,5
2018-08-25T23:59:29Z,17,22,18,15,22,17,14,13,3,6,0,0,0,0,0,0,11,11,7,12,0,22,0,17,18,1,13,1,22,0,17,0,6,14,2,6,10,5,19,3,0,14,6,0,22,0,0,17,0,0,19,3,0,14,6,0,22,0,0,17,0,0,22,0,0,17,0,0,22,0,0,17,0,0,19,3,0,14,7,0,22,0,0,17,1,0,22,0,0,17,1,0,2,20,0,3,15,0,0,22,0,0,17,0,22,0,0,17,1,0,22,0,0,17,1,0,12,9,1,9,8,5
2018-08-26T23:59:22Z,14,19,15,12,19,14,11,10,2,5,0,0,0,0,0,0,11,8,7,9,0,19,0,14,19,0,14,0,19,0,14,0,7,12,0,7,8,4,19,0,0,14,4,0,19,0,0,14,0,0,18,1,0,13,4,0,19,0,0,14,0,0,19,0,0,14,0,0,19,0,0,14,0,0,18,1,0,13,5,0,19,0,0,14,1,0,19,0,0,14,1,0,0,19,0,3,14,0,0,19,0,0,14,0,19,0,0,14,2,0,19,0,0,14,1,0,12,6,1,9,6,4
2018-08-27T23:59:36Z,16,22,17,14,22,16,13,12,3,6,0,0,0,0,0,0,14,8,9,10,0,22,0,16,21,0,15,0,22,0,16,0,6,15,1,7,10,4,21,1,0,15,5,0,22,0,0,16,1,0,21,1,0,15,5,0,22,0,0,16,1,0,22,0,0,16,1,0,22,0,0,16,1,0,20,2,0,14,7,0,22,0,0,16,2,0,22,0,0,16,2,0,1,21,0,4,15,0,0,22,0,0,16,0,22,0,0,16,2,0,22,0,0,16,2,0,13,7,2,9,6,6
2018-08-28T23:59:22Z,15,22,15,12,22,15,11,10,1,4,0,0,0,0,0,0,15,7,9,8,0,22,0,15,22,0,15,0,22,0,15,0,6,16,0,6,10,3,20,2,0,14,4,0,22,0,0,15,0,0,20,2,0,14,4,0,22,0,0,15,0,0,22,0,0,15,0,0,22,0,0,15,0,0,20,2,0,14,5,0,22,0,0,15,1,0,22,0,0,15,1,0,0,22,0,3,15,0,0,22,0,0,15,0,22,0,0,15,1,0,22,0,0,15,1,0,15,7,0,10,6,4
2018-08-29T23:59:21Z,17,23,17,14,22,17,13,12,2,5,0,0,0,0,0,0,14,9,9,11,0,23,0,17,22,0,16,0,23,0,17,0,7,15,1,8,11,4,23,0,0,17,4,1,22,0,1,16,1,1,23,0,0,17,4,0,23,0,0,17,1,1,23,0,0,17,1,1,23,0,0,17,1,0,21,1,1,16,7,1,22,0,1,17,2,1,23,0,0,17,2,1,0,22,1,4,16,1,0,23,0,0,17,0,23,0,0,17,3,0,22,0,1,16,2,1,15,6,2,11,5,6
2018-08-30T23:59:22Z,13,17,13,11,17,13,9,9,3,4,0,0,0,0,0,0,11,6,7,8,0,17,0,13,13,0,9,0,17,0,13,0,2,12,3,3,8,4,15,2,0,11,3,1,17,0,0,13,0,1,15,2,0,11,3,1,17,0,0,13,0,1,17,0,0,13,0,1,17,0,0,13,0,1,15,2,0,12,4,1,16,0,1,12,1,2,17,0,0,13,1,1,2,14,1,3,10,2,1,16,0,1,12,1,17,0,0,13,1,1,17,0,0,13,1,1,8,9,0,6,8,3
2018-08-31T23:59:20Z,15,20,16,13,19,15,12,11,2,5,0,0,0,0,0,0,11,9,7,10,0,20,0,15,19,0,14,0,20,0,15,0,7,12,1,7,9,4,19,1,0,14,5,0,20,0,0,15,1,0,19,1,0,14,5,0,20,0,0,15,1,0,20,0,0,15,1,0,20,0,0,15,1,0,19,1,0,14,6,0,20,0,0,15,2,0,20,0,0,15,2,0,1,19,0,4,14,0,0,20,0,0,15,0,20,0,0,15,2,0,20,0,0,15,2,0,12,6,2,9,5,5
2018-09-01T23:59:22Z,17,23,18,15,21,16,14,13,2,5,0,0,0,0,0,0,15,8,10,10,0,23,0,17,22,0,16,0,23,0,17,0,8,15,0,9,11,3,21,2,0,15,6,0,23,0,0,17,1,0,21,2,0,15,6,0,23,0,0,17,1,0,23,0,0,17,1,0,23,0,0,17,1,0,21,2,0,15,8,0,23,0,0,17,2,0,23,0,0,17,2,0,1,22,0,4,16,0,0,23,0,0,17,0,23,0,0,17,3,0,23,0,0,17,2,0,14,8,1,10,7,5
2018-09-02T23:59:28Z,19,25,19,16,24,19,14,13,2,5,0,0,0,0,0,0,15,10,10,11,0,24,0,19,23,0,17,0,25,0,19,0,8,16,1,8,12,4,23,2,0,17,6,0,25,0,0,19,1,0,23,2,0,18,6,0,25,0,0,19,1,0,25,0,0,19,1,0,25,0,0,19,1,0,23,2,0,17,7,0,25,0,0,19,2,0,25,0,0,19,2,0,2,23,0,5,18,0,0,25,0,0,19,0,25,0,0,19,3,0,25,0,0,19,2,0,16,8,1,13,7,4
2018-09-03T23:59:22Z,17,23,17,14,21,16,16,13,2,5,0,0,0,0,0,0,14,9,9,10,0,23,0,17,22,0,16,0,23,0,17,0,7,15,1,7,11,4,22,1,0,16,5,0,23,0,0,17,1,0,22,1,0,16,5,0,23,0,0,17,1,0,23,0,0,17,1,0,23,0,0,17,1,0,22,1,0,16,6,0,23,0,0,17,2,0,23,0,0,17,2,0,1,22,0,4,16,0,0,23,0,0,17,0,23,0,0,17,2,0,23,0,0,17,2,0,15,6,2,11,5,5
2018-09-04T23:59:21Z,16,22,16,13,21,16,12,11,1,4,0,0,0,0,0,0,14,8,9,9,0,22,0,16,22,0,16,0,22,0,16,0,7,15,0,7,11,3,22,0,0,16,4,0,22,0,0,16,1,0,22,0,0,16,4,0,22,0,0,16,1,0,22,0,0,16,1,0,22,0,0,16,1,0,22,0,0,16,5,0,22,0,0,16,2,0,22,0,0,16,2,0,0,22,0,3,16,0,0,22,0,0,16,0,22,0,0,16,2,0,22,0,0,16,2,0,15,6,1,11,5,4
2018-09-05T23:59:28Z,19,26,20,16,25,19,16,14,2,5,0,0,0,0,0,0,14,12,9,12,0,26,0,19,25,0,18,0,26,0,19,0,9,16,1,9,12,4,25,1,0,18,6,0,26,0,0,19,1,0,25,1,0,18,5,0,26,0,0,19,1,0,26,0,0,19,1,0,26,0,0,19,1,0,25,1,0,18,7,0,26,0,0,19,2,0,26,0,0,19,2,0,1,25,0,4,18,0,0,26,0,0,19,0,26,0,0,19,3,0,26,0,0,19,2,0,18,7,1,13,6,5
2018-09-06T23:59:22Z,20,27,21,17,26,20,17,15,3,6,0,0,0,0,0,0,16,11,11,12,0,27,0,20,27,0,20,0,27,0,20,0,9,18,0,9,14,4,26,1,0,19,6,0,27,0,0,20,1,0,26,1,0,19,6,0,27,0,0,20,1,0,27,0,0,20,1,0,27,0,0,20,1,0,26,1,0,19,8,0,27,0,0,20,2,0,27,0,0,20,2,0,1,26,0,5,19,0,0,27,0,0,20,0,27,0,0,20,4,0,27,0,0,20,2,0,18,8,1,13,7,5
2018-09-07T23:59:21Z,19,28,22,16,27,19,18,14,1,4,0,0,0,0,0,0,14,14,9,12,0,28,0,19,28,0,19,0,28,0,19,0,12,16,0,10,12,3,28,0,0,19,4,0,28,0,0,19,1,0,28,0,0,19,4,0,28,0,0,19,1,0,28,0,0,19,1,0,28,0,0,19,1,0,28,0,0,19,6,0,28,0,0,19,2,0,28,0,0,19,2,0,0,28,0,3,19,0,0,28,0,0,19,0,28,0,0,19,3,0,28,0,0,19,2,0,21,7,0,14,6,4
2018-09-08T23:59:20Z,19,28,22,16,28,19,18,14,3,6,0,0,0,0,0,0,13,15,8,13,0,28,0,19,27,0,18,0,28,0,19,0,11,16,1,9,11,4,26,2,0,17,5,0,28,0,0,19,0,0,26,2,0,17,5,0,28,0,0,19,0,0,28,0,0,19,0,0,28,0,0,19,0,0,26,2,0,17,7,0,28,0,0,19,1,0,28,0,0,19,1,0,2,26,0,5,17,0,0,28,0,0,19,0,28,0,0,19,2,0,28,0,0,19,1,0,20,7,1,13,6,5
2018-09-09T23:59:21Z,19,28,22,16,28,19,17,13,3,6,0,0,0,0,0,0,14,14,9,13,0,28,0,19,28,0,19,0,28,0,19,0,12,16,0,10,11,5,28,0,0,19,5,0,28,0,0,19,0,0,27,1,0,19,5,0,28,0,0,19,0,0,28,0,0,19,0,0,28,0,0,19,0,0,26,2,0,17,7,0,28,0,0,19,1,0,28,0,0,19,1,0,1,27,0,5,19,0,0,28,0,0,19,0,28,0,0,19,4,0,28,0,0,19,1,0,20,6,2,14,5,5
2018-09-10T23:59:37Z,19,28,20,14,28,19,17,12,2,5,0,0,0,0,0,0,12,16,7,14,0,28,0,19,26,0,17,0,28,0,19,0,14,14,0,12,9,3,27,1,0,18,5,0,28,0,0,19,1,0,27,1,0,18,5,0,28,0,0,19,1,0,28,0,0,19,1,0,28,0,0,19,1,0,27,1,0,18,6,0,28,0,0,19,1,0,28,0,0,19,1,0,1,27,0,4,18,0,0,27,1,0,19,1,28,0,0,19,2,0,28,0,0,19,1,0,22,5,1,15,4,4
2018-09-11T23:59:20Z,21,29,23,17,29,21,19,14,4,8,0,0,0,0,0,0,12,17,9,15,0,29,0,21,28,0,20,0,29,0,21,0,12,14,3,9,11,7,26,3,0,18,7,0,29,0,0,21,0,0,27,2,0,19,7,0,29,0,0,21,0,0,29,0,0,21,0,0,29,0,0,21,0,0,25,4,0,17,8,0,29,0,0,21,0,0,29,0,0,21,0,0,1,28,0,7,20,0,0,29,0,0,21,0,29,0,0,21,3,1,29,0,0,21,0,0,20,7,2,14,7,6
2018-09-12T23:59:22Z,19,27,21,15,27,19,17,13,2,5,0,0,0,0,0,0,12,15,9,12,0,27,0,19,27,0,19,0,27,0,19,0,13,14,0,10,11,3,27,0,0,19,4,0,27,0,0,19,0,0,26,1,0,18,4,0,27,0,0,19,0,0,27,0,0,19,0,0,27,0,0,19,0,0,26,1,0,18,5,0,27,0,0,19,0,0,27,0,0,19,0,0,0,27,0,4,19,0,0,27,0,0,19,0,27,0,0,19,2,2,27,0,0,19,0,0,20,6,1,14,5,4
2018-09-13T23:59:22Z,20,28,22,16,28,20,19,14,3,6,0,0,0,0,0,0,14,14,10,12,0,28,0,20,28,0,20,0,28,0,20,0,12,16,0,9,12,4,28,0,0,20,4,0,28,0,0,20,0,0,28,0,0,20,4,0,28,0,0,20,0,0,28,0,0,20,0,0,28,0,0,20,0,0,27,1,0,19,6,0,28,0,0,20,0,0,28,0,0,20,0,0,0,28,0,4,20,0,0,28,0,0,20,0,28,0,0,20,2,4,28,0,0,20,0,0,20,5,3,14,4,5
2018-09-14T23:59:22Z,22,30,24,18,30,22,20,16,2,6,0,0,0,0,0,0,13,17,10,15,0,30,0,22,29,0,21,0,30,0,22,0,14,16,0,11,13,5,30,0,0,22,6,0,30,0,0,22,0,0,30,0,0,22,6,0,30,0,0,22,0,0,30,0,0,22,0,0,30,0,0,22,0,0,29,1,0,21,7,0,30,0,0,22,0,0,30,0,0,22,0,0,0,30,0,6,22,0,0,30,0,0,22,0,30,0,0,22,3,5,30,0,0,22,0,0,22,6,2,16,5,6
2018-09-15T23:59:21Z,22,31,24,18,31,22,20,16,2,6,0,0,0,0,0,0,16,15,11,14,0,31,0,22,30,0,21,0,31,0,22,0,14,17,0,12,13,5,30,1,0,21,6,0,31,0,0,22,0,0,31,0,0,22,6,0,31,0,0,22,0,0,31,0,0,22,0,0,30,0,1,21,0,1,31,0,0,22,8,0,31,0,0,22,0,0,31,0,0,22,0,0,1,30,0,6,21,0,1,30,0,1,21,0,31,0,0,22,4,5,31,0,0,22,0,0,23,6,2,16,5,7
2018-09-16T23:59:22Z,23,32,24,18,32,23,20,16,1,5,0,0,0,0,0,0,15,17,11,14,0,32,0,23,29,1,20,1,32,0,23,0,15,17,0,12,13,4,31,1,0,22,6,0,32,0,0,23,0,0,31,1,0,22,6,0,32,0,0,23,0,0,32,0,0,23,0,0,32,0,0,23,0,0,30,2,0,21,7,0,32,0,0,23,0,0,32,0,0,23,0,0,1,31,0,6,22,0,0,32,0,0,23,0,32,0,0,23,3,4,32,0,0,23,0,0,24,7,1,17,6,6
2018-09-17T23:59:17Z,23,32,24,18,31,23,21,16,2,6,0,0,0,0,0,0,15,17,10,15,0,32,0,23,32,0,23,0,32,0,23,0,15,16,1,13,14,5,32,0,0,23,7,0,32,0,0,23,2,0,31,1,0,22,7,0,32,0,0,23,2,0,32,0,0,23,2,0,32,0,0,23,2,0,32,0,0,23,9,0,32,0,0,23,2,0,32,0,0,23,2,0,1,31,0,5,22,0,0,32,0,0,23,0,32,0,0,23,5,4,32,0,0,23,2,0,25,7,0,18,6,7
2018-09-18T23:59:20Z,22,30,24,18,29,22,20,16,3,7,0,0,0,0,0,0,14,16,10,14,0,30,0,22,29,0,21,0,30,0,22,0,14,16,0,11,13,5,30,0,0,22,7,0,30,0,0,22,1,0,29,1,0,21,7,0,30,0,0,22,1,0,30,0,0,22,1,0,30,0,0,22,1,0,30,0,0,22,8,0,30,0,0,22,1,0,30,0,0,22,1,0,0,30,0,6,22,0,0,30,0,0,22,0,30,0,0,22,4,5,30,0,0,22,1,0,22,6,2,16,5,6
2018-09-19T23:59:22Z,20,28,22,16,27,20,19,14,1,5,0,0,0,0,0,0,12,16,8,13,0,28,0,20,28,0,20,0,28,0,20,0,14,14,0,11,11,4,28,0,0,20,5,0,28,0,0,20,1,0,28,0,0,20,5,0,28,0,0,20,1,0,28,0,0,20,1,0,28,0,0,20,1,0,28,0,0,20,6,0,28,0,0,20,1,0,28,0,0,20,1,0,0,28,0,4,20,0,0,28,0,0,20,0,28,0,0,20,2,4,28,0,0,20,1,0,22,5,1,16,4,4
2018-09-20T23:59:32Z,23,32,25,19,31,23,21,17,2,6,0,0,0,0,0,0,15,17,10,15,0,32,0,23,31,1,22,1,32,0,23,0,14,17,1,12,14,5,31,1,0,22,7,0,31,1,0,23,2,0,30,2,0,21,7,1,31,0,1,22,2,1,31,0,1,22,2,1,31,0,1,22,2,1,31,1,0,22,9,0,31,1,0,22,2,0,31,1,0,22,2,0,0,31,1,5,22,1,0,31,1,0,23,1,32,0,0,23,5,4,31,0,1,23,1,1,24,7,1,17,6,6
2018-09-21T23:59:22Z,21,30,23,17,29,21,20,15,1,5,0,0,0,0,0,0,14,16,9,13,0,30,0,21,30,0,21,0,30,0,21,0,14,16,0,11,12,4,30,0,0,21,5,0,30,0,0,21,1,0,30,0,0,21,5,0,30,0,0,21,1,0,30,0,0,21,1,0,30,0,0,21,1,0,30,0,0,21,6,0,30,0,0,21,1,0,30,0,0,21,1,0,0,30,0,4,21,0,0,30,0,0,21,0,30,0,0,21,2,4,30,0,0,21,1,0,24,5,1,17,4,4
2018-09-22T23:59:20Z,22,31,24,18,30,22,21,16,1,5,0,0,0,0,0,0,15,16,10,13,0,31,0,22,30,0,21,0,31,0,22,0,14,16,1,11,13,5,30,1,0,21,6,0,31,0,0,22,1,0,30,1,0,21,6,0,31,0,0,22,1,0,31,0,0,22,1,0,31,0,0,22,1,0,31,0,0,22,7,0,31,0,0,22,1,0,31,0,0,22,1,0,0,31,0,5,22,0,0,31,0,0,22,0,31,0,0,22,3,3,31,0,0,22,1,0,24,7,0,17,6,5
2018-09-23T23:59:46Z,24,33,26,20,32,24,23,18,1,6,0,0,0,0,0,0,16,17,12,15,0,33,0,24,33,0,24,0,33,0,24,0,14,19,0,11,15,5,32,1,0,23,8,0,33,0,0,24,1,0,33,0,0,24,8,0,33,0,0,24,1,0,33,0,0,24,1,0,33,0,0,24,1,0,32,1,0,23,9,0,33,0,0,24,1,0,33,0,0,24,1,0,1,32,0,7,23,0,0,33,0,0,24,0,33,0,0,24,4,3,33,0,0,24,1,0,24,8,1,17,7,7
2018-09-24T23:59:21Z,21,30,23,17,30,21,20,15,2,6,0,0,0,0,0,0,15,15,10,12,0,30,0,21,30,0,21,0,30,0,21,0,13,17,0,10,12,4,30,0,0,21,4,0,30,0,0,21,0,0,30,0,0,21,4,0,30,0,0,21,0,0,30,0,0,21,0,0,30,0,0,21,0,0,30,0,0,21,5,0,30,0,0,21,0,0,30,0,0,21,0,0,0,30,0,4,21,0,0,30,0,0,21,0,30,0,0,21,1,1,30,0,0,21,0,0,23,5,2,16,4,5
2018-09-25T23:59:22Z,24,33,26,20,33,24,23,18,4,8,0,0,0,0,0,0,14,19,9,16,0,33,0,24,30,0,21,0,33,0,24,0,13,17,3,10,13,7,30,3,0,21,7,0,33,0,0,24,1,0,30,3,0,21,7,0,33,0,0,24,1,0,33,0,0,24,1,0,33,0,0,24,1,0,29,4,0,20,9,0,33,0,0,24,1,0,33,0,0,24,1,0,3,30,0,7,22,0,0,33,0,0,24,0,33,0,0,24,2,0,33,0,0,24,1,0,24,5,4,18,4,7
2018-09-26T23:59:22Z,25,34,26,20,34,25,21,17,3,7,0,0,0,0,0,0,15,19,11,16,0,34,0,25,30,0,21,0,34,0,25,0,15,18,1,12,14,5,33,1,0,24,6,0,34,0,0,25,0,0,33,1,0,24,6,0,34,0,0,25,0,0,34,0,0,25,0,0,34,0,0,25,0,0,32,2,0,23,8,0,34,0,0,25,0,0,34,0,0,25,0,0,1,33,0,6,24,0,0,34,0,0,25,0,34,0,0,25,2,0,34,0,0,25,0,0,25,7,2,18,6,7
2018-09-27T23:59:30Z,25,34,27,21,34,25,24,19,3,7,0,0,0,0,0,0,17,17,12,16,0,34,0,25,32,1,23,1,34,0,25,0,13,21,0,11,16,5,34,0,0,25,5,0,34,0,0,25,0,0,34,0,0,25,4,1,34,0,0,25,0,0,34,0,0,25,0,0,34,0,0,25,0,0,33,1,0,24,8,0,34,0,0,25,0,0,34,0,0,25,0,0,0,34,0,5,25,0,0,34,0,0,25,0,34,0,0,25,3,0,34,0,0,25,0,0,25,6,3,18,5,7